STARLINK-3887, 52484

Orbit data source: Space-Track

STARLINK-3887, 52484 is a payload satellite owned by SpaceX/Seattle (US) in LEO that was launched on Fri, 06 May 2022 UTC via an FALCON 9 launch vehicle from the Air Force Eastern Test Range (AFETR). Payload-class satellites include a variety of spacecraft equipped with specific instruments for various scientific and technological missions. These include communications satellites like Starlink; space stations such as the ISS; scientific satellites like the Hubble; Earth observation satellites from companies like Planet Labs, Umbra, and HawkEye 360; GPS; miniature CubeSats for education and research; and military/defense satellites.

Loading next visibility...
Identifier
52484, 2022-049AK
Orbit
LEO
Country
Flag of USUS
Related business
Manufacturer
SpaceX/Seattle
Mission
Operational Commercial Communications
Bus & Motor
STARLINK, Unknown motor
Mass
297 kg wet, ~220 kg dry
Launch date (UTC)
2022-05-06 (4 years ago)
Launch vehicle
FALCON 9
Launch site
Air Force Eastern Test Range (AFETR)
Object type
Payload
Rocket body
Debris
Shape & HBR
Box + 1 Pan, 10.1 m
Radar Cross Section
13.562 m², Large (>1 m²)

Expand to show TLE details & history
Last TLE update: 11 hours ago

TLE from 11 hours ago
0 STARLINK-3887
1 52484U 22049AK  25346.98253281 -.00002056  00000-0 -11119-3 0  9999
2 52484  53.2193  88.3669 0001289  99.4540 260.6598 15.08822994199169
Epoch: 2025-12-12T23:34Z
TLE epoch observation values (Epoch: 2025-12-12T23:34:50.834Z)
Latitude
-0.00003°
Longitude
12.73873°
Altitude
540.838 km
Speed
7.593 km/s
True Right ascension
05h 53m 28s
True Declination
0° 00' 00"
Sunlit
Object was in full shadow at epoch
Visualization orbit readout
Latitude
Unknown
Longitude
Unknown
Altitude
Unknown
Speed
Unknown
Apparent Right ascension
Unknown
Apparent Declination
Unknown
Sunlit
N/A
Visualization observer readout
Local Sidereal Time
09:16:23
Azimuth
Unknown
Elevation
Unknown
Doppler factor
Unknown
Orbital elements
Apogee altitude
540.932 km
Perigee altitude
539.148 km
Semi-major axis
6,918.177 km
Eccentricity
0.00013
Inclination
53.2193°
RAAN
88.3669°
Arg. of periapsis
99.454°
True anomaly
260.64523°
Mean anomaly
260.6598°
Eccentric anomaly
260.65251°
Mean motion
3.77186 °/min
Orbital period
95.44 mins
BSTAR
-0.00011119
Loading maneuver chart data...
Computing Atmospheric mass density...
Loading historical data...
Loading historical data...
Loading historical data...
Loading historical data...
Loading historical data...
Loading historical data...
Loading historical data...

Documentation

Showing up to 5 results
|